Location: Ciserano
(45.5833°N, 9.6000°E)
Time: 09:25:16
(UTC+00:00)

NOAA 12 - Pass Details

Date: 29 November 2020
Orbit: 795 x 815 km, 98.5° (Epoch: 25 January)

Event Time Altitude Azimuth Distance (km) Brightness Sun altitude
Rises 05:38:53 0° 15° (NNE) 3,332 7.3 -10.4°
Reaches altitude 10° 05:41:15 10° 18° (NNE) 2,393 6.5 -10.0°
Maximum altitude 05:46:32 70° 103° (ESE) 851 4.5 -9.2°
Drops below altitude 10° 05:51:45 10° 187° (S) 2,364 6.7 -8.3°
Sets 05:54:04 0° 189° (S) 3,288 7.5 -7.9°
